FENIX20 EPPW-EPPW

Flight info

Callsign FENIX20
Flight time 1h 14m
Altitude 1500
Route EPPWL DCT EPPWN DCT EPPWC
Aircraft C130/M-G/LB1

Departure

Time 2026-04-17 19:08
Airport Powidz Military Air Base (EPPW)

Arrival

Time 2026-04-17 20:22
Airport Powidz Military Air Base (EPPW)
Time Latitude Longitude Altitude Speed Heading
2026-04-17 19:04 52.37884 17.87512 366 ft 0 kts 192°
2026-04-17 19:04 52.37881 17.87511 366 ft 4 kts 192°
2026-04-17 19:04 52.37842 17.87509 370 ft 8 kts 150°
2026-04-17 19:05 52.37815 17.87582 366 ft 6 kts 108°
2026-04-17 19:05 52.37805 17.87635 368 ft 4 kts 107°
2026-04-17 19:05 52.37789 17.87720 371 ft 11 kts 107°
2026-04-17 19:05 52.37749 17.87800 368 ft 9 kts 167°
2026-04-17 19:06 52.37696 17.87788 369 ft 6 kts 195°
2026-04-17 19:06 52.37658 17.87770 368 ft 6 kts 197°
2026-04-17 19:06 52.37643 17.87762 368 ft 0 kts 197°
2026-04-17 19:07 52.37607 17.87744 366 ft 13 kts 197°
2026-04-17 19:07 52.37524 17.87701 366 ft 12 kts 197°
2026-04-17 19:07 52.37456 17.87651 365 ft 9 kts 233°
2026-04-17 19:07 52.37470 17.87470 367 ft 37 kts 286°
2026-04-17 19:08 52.37615 17.86701 368 ft 104 kts 287°
2026-04-17 19:08 52.37889 17.85270 420 ft 156 kts 287°
2026-04-17 19:08 52.38214 17.83452 665 ft 171 kts 288°
2026-04-17 19:08 52.38545 17.81604 1168 ft 168 kts 288°
2026-04-17 19:09 52.39104 17.79955 1518 ft 174 kts 323°
2026-04-17 19:09 52.40263 17.79427 1586 ft 183 kts 11°
2026-04-17 19:09 52.41333 17.80570 1623 ft 195 kts 55°
2026-04-17 19:09 52.41612 17.82749 1590 ft 212 kts 98°
2026-04-17 19:10 52.41139 17.85083 1601 ft 219 kts 108°
2026-04-17 19:10 52.40605 17.87459 1608 ft 219 kts 108°
2026-04-17 19:10 52.40108 17.89627 1519 ft 193 kts 108°
2026-04-17 19:10 52.39650 17.91658 1357 ft 179 kts 108°
2026-04-17 19:11 52.38980 17.93265 1433 ft 173 kts 144°
2026-04-17 19:11 52.37803 17.93527 1384 ft 181 kts 196°
2026-04-17 19:11 52.36863 17.92180 1235 ft 186 kts 246°
2026-04-17 19:11 52.36890 17.90209 863 ft 175 kts 296°
2026-04-17 19:12 52.37295 17.88402 580 ft 159 kts 287°
2026-04-17 19:12 52.37600 17.86774 370 ft 144 kts 286°
2026-04-17 19:12 52.37947 17.84937 425 ft 191 kts 287°
2026-04-17 19:12 52.38358 17.82762 749 ft 204 kts 288°
2026-04-17 19:13 52.38840 17.80604 1358 ft 203 kts 304°
2026-04-17 19:13 52.39989 17.79235 1560 ft 214 kts 347°
2026-04-17 19:13 52.41469 17.79499 1673 ft 219 kts 28°
2026-04-17 19:13 52.42479 17.81274 1689 ft 216 kts 68°
2026-04-17 19:14 52.42457 17.83703 1555 ft 221 kts 105°
2026-04-17 19:14 52.41916 17.86108 1467 ft 225 kts 108°
2026-04-17 19:14 52.41370 17.88430 1510 ft 206 kts 109°
2026-04-17 19:14 52.40865 17.90487 1445 ft 189 kts 109°
2026-04-17 19:15 52.39961 17.92037 1444 ft 198 kts 155°
2026-04-17 19:15 52.38586 17.92131 1364 ft 201 kts 190°
2026-04-17 19:15 52.37356 17.91134 1192 ft 191 kts 230°
2026-04-17 19:15 52.37096 17.89226 881 ft 182 kts 288°
2026-04-17 19:16 52.37511 17.87284 532 ft 162 kts 287°
2026-04-17 19:16 52.37852 17.85476 623 ft 169 kts 287°
2026-04-17 19:16 52.38202 17.83606 597 ft 175 kts 289°
2026-04-17 19:16 52.38553 17.81714 852 ft 177 kts 278°
2026-04-17 19:17 52.38171 17.79787 1205 ft 189 kts 229°
2026-04-17 19:17 52.36993 17.78823 1535 ft 197 kts 194°
2026-04-17 19:17 52.35666 17.78244 1604 ft 195 kts 194°
2026-04-17 19:17 52.34331 17.78427 1582 ft 196 kts 148°
2026-04-17 19:18 52.33506 17.80102 1533 ft 195 kts 105°
2026-04-17 19:18 52.33098 17.82228 1613 ft 196 kts 105°
2026-04-17 19:18 52.32671 17.84392 1588 ft 204 kts 106°
2026-04-17 19:18 52.32211 17.86623 1558 ft 210 kts 107°
2026-04-17 19:19 52.31786 17.88898 1621 ft 206 kts 93°
2026-04-17 19:19 52.32147 17.91022 1586 ft 193 kts 50°
2026-04-17 19:19 52.33266 17.92051 1530 ft 192 kts 15°
2026-04-17 19:19 52.34454 17.92589 1316 ft 163 kts 15°
2026-04-17 19:20 52.35475 17.92498 1087 ft 157 kts 326°
2026-04-17 19:20 52.36350 17.91349 896 ft 161 kts 317°
2026-04-17 19:20 52.36988 17.89908 689 ft 147 kts 290°
2026-04-17 19:20 52.37298 17.88351 468 ft 139 kts 286°
2026-04-17 19:21 52.37566 17.86942 374 ft 120 kts 286°
2026-04-17 19:21 52.37869 17.85405 385 ft 168 kts 288°
2026-04-17 19:21 52.38252 17.83372 608 ft 203 kts 287°
2026-04-17 19:21 52.38628 17.81123 1149 ft 208 kts 286°
2026-04-17 19:22 52.39032 17.78880 1326 ft 207 kts 309°
2026-04-17 19:22 52.40319 17.78115 1358 ft 214 kts
2026-04-17 19:22 52.41678 17.78988 1411 ft 203 kts 54°
2026-04-17 19:22 52.41751 17.81158 1454 ft 204 kts 108°
2026-04-17 19:23 52.41260 17.83451 1434 ft 222 kts 105°
2026-04-17 19:23 52.41091 17.88264 1588 ft 224 kts 49°
2026-04-17 19:23 52.42547 17.88950 1555 ft 231 kts 346°
2026-04-17 19:24 52.43680 17.87200 1692 ft 234 kts 291°
2026-04-17 19:24 52.43429 17.84638 1773 ft 240 kts 240°
2026-04-17 19:24 52.41981 17.83403 1597 ft 244 kts 176°
2026-04-17 19:24 52.40696 17.84785 1667 ft 222 kts 116°
2026-04-17 19:25 52.40548 17.87284 1385 ft 224 kts 79°
2026-04-17 19:25 52.41405 17.89204 1822 ft 213 kts 26°
2026-04-17 19:25 52.42897 17.89581 1701 ft 222 kts
2026-04-17 19:25 52.44472 17.89673 1549 ft 229 kts
2026-04-17 19:26 52.46051 17.89618 1563 ft 228 kts 350°
2026-04-17 19:26 52.47247 17.87897 1549 ft 247 kts 298°
2026-04-17 19:26 52.47159 17.85169 1529 ft 247 kts 245°
2026-04-17 19:26 52.45800 17.83674 1573 ft 241 kts 187°
2026-04-17 19:27 52.44328 17.84638 1579 ft 234 kts 131°
2026-04-17 19:27 52.44046 17.87096 1572 ft 226 kts 75°
2026-04-17 19:27 52.45120 17.88786 1670 ft 221 kts 19°
2026-04-17 19:27 52.46413 17.89890 1931 ft 208 kts 57°
2026-04-17 19:28 52.46412 17.92227 1841 ft 221 kts 106°
2026-04-17 19:28 52.45903 17.94672 1617 ft 234 kts 108°
2026-04-17 19:28 52.45350 17.97144 1559 ft 230 kts 108°
2026-04-17 19:28 52.44790 17.99576 1568 ft 226 kts 109°
2026-04-17 19:29 52.44031 18.01767 1593 ft 225 kts 148°
2026-04-17 19:29 52.42509 18.01842 1560 ft 228 kts 195°
2026-04-17 19:29 52.40994 18.01098 1565 ft 227 kts 197°
2026-04-17 19:29 52.39521 18.00318 1593 ft 210 kts 198°
2026-04-17 19:30 52.38219 17.99561 1604 ft 188 kts 200°
2026-04-17 19:30 52.37380 17.98228 1517 ft 170 kts 252°
2026-04-17 19:30 52.36987 17.96290 1394 ft 184 kts 254°
2026-04-17 19:30 52.36632 17.94338 1311 ft 173 kts 256°
2026-04-17 19:31 52.36520 17.92427 968 ft 164 kts 283°
2026-04-17 19:31 52.36852 17.90685 734 ft 155 kts 287°
2026-04-17 19:31 52.37172 17.88981 561 ft 156 kts 288°
2026-04-17 19:31 52.37496 17.87346 393 ft 147 kts 287°
2026-04-17 19:32 52.37797 17.85728 369 ft 166 kts 287°
2026-04-17 19:32 52.38189 17.83706 640 ft 201 kts 288°
2026-04-17 19:32 52.38607 17.81375 1015 ft 218 kts 287°
2026-04-17 19:32 52.39026 17.78949 1312 ft 223 kts 287°
2026-04-17 19:33 52.39424 17.76478 1538 ft 230 kts 286°
2026-04-17 19:33 52.39795 17.73851 1586 ft 241 kts 281°
2026-04-17 19:33 52.40064 17.71202 1734 ft 231 kts 281°
2026-04-17 19:33 52.40337 17.68587 1625 ft 233 kts 282°
2026-04-17 19:34 52.40628 17.65960 1516 ft 236 kts 282°
2026-04-17 19:34 52.40939 17.63350 1606 ft 227 kts 284°
2026-04-17 19:34 52.41313 17.60870 1730 ft 222 kts 287°
2026-04-17 19:34 52.41727 17.58425 1805 ft 220 kts 288°
2026-04-17 19:35 52.42149 17.56029 1860 ft 220 kts 288°
2026-04-17 19:35 52.42567 17.53641 1863 ft 222 kts 288°
2026-04-17 19:35 52.43000 17.51165 1859 ft 224 kts 288°
2026-04-17 19:35 52.43074 17.48657 1835 ft 229 kts 254°
2026-04-17 19:36 52.42139 17.46581 1827 ft 232 kts 214°
2026-04-17 19:36 52.40625 17.45836 1827 ft 230 kts 176°
2026-04-17 19:36 52.39151 17.46679 1826 ft 225 kts 139°
2026-04-17 19:36 52.38476 17.47976 1828 ft 221 kts 114°
2026-04-17 19:37 52.38252 17.50388 1827 ft 216 kts 76°
2026-04-17 19:37 52.39423 17.52835 1832 ft 213 kts 24°
2026-04-17 19:37 52.40876 17.53029 1835 ft 216 kts 345°
2026-04-17 19:37 52.42091 17.51615 1839 ft 222 kts 306°
2026-04-17 19:38 52.42519 17.49196 1831 ft 227 kts 273°
2026-04-17 19:38 52.42616 17.47516 1730 ft 215 kts 285°
2026-04-17 19:38 52.43434 17.45727 1527 ft 195 kts 345°
2026-04-17 19:38 52.44617 17.46373 1362 ft 186 kts 49°
2026-04-17 19:39 52.44893 17.48378 1366 ft 184 kts 101°
2026-04-17 19:39 52.44485 17.50363 1444 ft 192 kts 105°
2026-04-17 19:39 52.44166 17.52515 1484 ft 199 kts 83°
2026-04-17 19:39 52.44328 17.54838 1509 ft 205 kts 77°
2026-04-17 19:40 52.44577 17.57142 1651 ft 206 kts 81°
2026-04-17 19:40 52.44461 17.59490 1709 ft 213 kts 103°
2026-04-17 19:40 52.44014 17.61845 1729 ft 219 kts 105°
2026-04-17 19:40 52.43549 17.64220 1768 ft 223 kts 105°
2026-04-17 19:41 52.43081 17.66651 1812 ft 224 kts 105°
2026-04-17 19:41 52.42603 17.69134 1693 ft 232 kts 106°
2026-04-17 19:41 52.42109 17.71674 1603 ft 235 kts 105°
2026-04-17 19:41 52.41742 17.74270 1584 ft 233 kts 99°
2026-04-17 19:42 52.41447 17.76816 1605 ft 224 kts 98°
2026-04-17 19:42 52.41180 17.79314 1580 ft 220 kts 98°
2026-04-17 19:42 52.40883 17.81741 1475 ft 212 kts 100°
2026-04-17 19:42 52.40586 17.83997 1393 ft 196 kts 101°
2026-04-17 19:43 52.40221 17.86059 1340 ft 182 kts 107°
2026-04-17 19:43 52.39821 17.87965 1202 ft 172 kts 108°
2026-04-17 19:43 52.39438 17.89686 1196 ft 153 kts 109°
2026-04-17 19:43 52.38735 17.90743 1098 ft 140 kts 175°
2026-04-17 19:44 52.37879 17.90096 847 ft 138 kts 222°
2026-04-17 19:44 52.37389 17.88767 678 ft 134 kts 261°
2026-04-17 19:44 52.37511 17.87260 386 ft 136 kts 290°
2026-04-17 19:44 52.37797 17.85732 370 ft 162 kts 287°
2026-04-17 19:45 52.38177 17.83786 698 ft 194 kts 288°
2026-04-17 19:45 52.38579 17.81573 1312 ft 210 kts 288°
2026-04-17 19:45 52.38909 17.79146 1772 ft 235 kts 264°
2026-04-17 19:45 52.37703 17.77491 1919 ft 250 kts 182°
2026-04-17 19:46 52.36446 17.78852 2104 ft 230 kts 110°
2026-04-17 19:46 52.35863 17.81168 2027 ft 214 kts 110°
2026-04-17 19:46 52.35344 17.83295 1848 ft 192 kts 108°
2026-04-17 19:46 52.34915 17.85285 1828 ft 181 kts 105°
2026-04-17 19:47 52.34728 17.87232 1485 ft 179 kts 74°
2026-04-17 19:47 52.35453 17.88719 1320 ft 166 kts 27°
2026-04-17 19:47 52.36558 17.89032 957 ft 167 kts 351°
2026-04-17 19:47 52.37390 17.87857 591 ft 167 kts 284°
2026-04-17 19:48 52.37742 17.86049 367 ft 161 kts 286°
2026-04-17 19:48 52.38099 17.84179 449 ft 193 kts 288°
2026-04-17 19:48 52.38497 17.81954 902 ft 216 kts 277°
2026-04-17 19:48 52.37670 17.80000 1196 ft 242 kts 199°
2026-04-17 19:49 52.36045 17.79054 1635 ft 243 kts 198°
2026-04-17 19:49 52.34462 17.78492 1597 ft 234 kts 163°
2026-04-17 19:49 52.33450 17.80187 1630 ft 209 kts 106°
2026-04-17 19:49 52.32959 17.82522 1647 ft 232 kts 106°
2026-04-17 19:50 52.32455 17.85104 1669 ft 234 kts 106°
2026-04-17 19:50 52.31970 17.87489 1675 ft 212 kts 106°
2026-04-17 19:50 52.32017 17.89845 1590 ft 224 kts 41°
2026-04-17 19:50 52.33447 17.90860 1637 ft 215 kts 16°
2026-04-17 19:51 52.34688 17.91384 1526 ft 153 kts 12°
2026-04-17 19:51 52.35628 17.91624 1265 ft 128 kts
2026-04-17 19:51 52.36452 17.91132 1087 ft 132 kts 321°
2026-04-17 19:51 52.36961 17.89901 799 ft 132 kts 294°
2026-04-17 19:52 52.37260 17.88538 571 ft 124 kts 288°
2026-04-17 19:52 52.37510 17.87248 369 ft 110 kts 284°
2026-04-17 19:52 52.37785 17.85872 408 ft 150 kts 288°
2026-04-17 19:52 52.38106 17.84115 682 ft 170 kts 286°
2026-04-17 19:53 52.38381 17.82163 927 ft 183 kts 267°
2026-04-17 19:53 52.37612 17.80715 1448 ft 179 kts 193°
2026-04-17 19:53 52.36363 17.80162 1743 ft 194 kts 193°
2026-04-17 19:53 52.34974 17.79558 1801 ft 216 kts 194°
2026-04-17 19:54 52.33460 17.78953 1842 ft 229 kts 181°
2026-04-17 19:54 52.31986 17.79744 2021 ft 227 kts 133°
2026-04-17 19:54 52.31337 17.82009 2335 ft 220 kts 107°
2026-04-17 19:54 52.30841 17.84494 2213 ft 236 kts 106°
2026-04-17 19:55 52.30312 17.87045 2124 ft 226 kts 106°
2026-04-17 19:55 52.29923 17.89464 1961 ft 214 kts 88°
2026-04-17 19:55 52.30503 17.91438 1903 ft 200 kts 31°
2026-04-17 19:55 52.31802 17.92194 1740 ft 189 kts 17°
2026-04-17 19:56 52.33008 17.92682 1490 ft 174 kts 14°
2026-04-17 19:56 52.34160 17.93075 1239 ft 167 kts
2026-04-17 19:56 52.35220 17.92393 972 ft 174 kts 322°
2026-04-17 19:56 52.36087 17.91176 857 ft 152 kts 318°
2026-04-17 19:57 52.36791 17.89996 698 ft 136 kts 309°
2026-04-17 19:57 52.37227 17.88693 553 ft 129 kts 288°
2026-04-17 19:57 52.37504 17.87311 386 ft 127 kts 288°
2026-04-17 19:57 52.37779 17.85856 364 ft 152 kts 288°
2026-04-17 19:58 52.38141 17.83961 582 ft 194 kts 287°
2026-04-17 19:58 52.38552 17.81717 871 ft 212 kts 288°
2026-04-17 19:58 52.38977 17.79386 1341 ft 218 kts 288°
2026-04-17 19:58 52.39433 17.76934 1620 ft 233 kts 289°
2026-04-17 19:59 52.39933 17.74314 1757 ft 249 kts 286°
2026-04-17 19:59 52.40137 17.71511 1857 ft 242 kts 275°
2026-04-17 19:59 52.40285 17.68732 1514 ft 245 kts 277°
2026-04-17 19:59 52.40494 17.65999 1191 ft 238 kts 282°
2026-04-17 20:00 52.40833 17.63506 1213 ft 212 kts 287°
2026-04-17 20:00 52.41196 17.61299 1243 ft 193 kts 287°
2026-04-17 20:00 52.41545 17.59238 1198 ft 184 kts 288°
2026-04-17 20:00 52.41899 17.57256 1157 ft 175 kts 289°
2026-04-17 20:01 52.42266 17.55382 1114 ft 170 kts 290°
2026-04-17 20:01 52.42643 17.53596 1202 ft 169 kts 290°
2026-04-17 20:01 52.42986 17.51633 1315 ft 187 kts 287°
2026-04-17 20:01 52.43267 17.49514 1504 ft 191 kts 276°
2026-04-17 20:02 52.42818 17.47554 1603 ft 199 kts 220°
2026-04-17 20:02 52.41477 17.47290 1487 ft 207 kts 156°
2026-04-17 20:02 52.40629 17.49158 1376 ft 214 kts 103°
2026-04-17 20:02 52.40924 17.51465 1516 ft 211 kts 55°
2026-04-17 20:03 52.42233 17.52261 1493 ft 218 kts 348°
2026-04-17 20:03 52.43275 17.50590 1549 ft 227 kts 288°
2026-04-17 20:03 52.43669 17.48015 1611 ft 240 kts 308°
2026-04-17 20:03 52.45075 17.46823 1790 ft 237 kts
2026-04-17 20:04 52.46327 17.48174 1791 ft 223 kts 71°
2026-04-17 20:04 52.46144 17.50669 1732 ft 231 kts 109°
2026-04-17 20:04 52.45593 17.53098 1890 ft 223 kts 108°
2026-04-17 20:04 52.45090 17.55465 1996 ft 220 kts 106°
2026-04-17 20:05 52.44597 17.57858 2003 ft 223 kts 106°
2026-04-17 20:05 52.44099 17.60325 1884 ft 229 kts 106°
2026-04-17 20:05 52.43604 17.62813 1864 ft 230 kts 105°
2026-04-17 20:05 52.43135 17.65329 1813 ft 232 kts 105°
2026-04-17 20:06 52.42670 17.67889 1599 ft 237 kts 105°
2026-04-17 20:06 52.42231 17.70356 1517 ft 214 kts 104°
2026-04-17 20:06 52.41859 17.72648 1385 ft 205 kts 103°
2026-04-17 20:06 52.41488 17.74912 1298 ft 205 kts 104°
2026-04-17 20:07 52.41126 17.77165 1249 ft 203 kts 102°
2026-04-17 20:07 52.40807 17.79413 1188 ft 201 kts 101°
2026-04-17 20:07 52.40507 17.81614 1295 ft 190 kts 101°
2026-04-17 20:07 52.40244 17.83705 1387 ft 187 kts 99°
2026-04-17 20:08 52.39992 17.85739 1361 ft 180 kts 101°
2026-04-17 20:08 52.39724 17.87687 1347 ft 168 kts 102°
2026-04-17 20:08 52.39429 17.89489 1290 ft 157 kts 104°
2026-04-17 20:08 52.39166 17.91203 1202 ft 167 kts 87°
2026-04-17 20:09 52.39769 17.92737 1490 ft 174 kts 22°
2026-04-17 20:09 52.40900 17.92454 1838 ft 175 kts 318°
2026-04-17 20:09 52.41456 17.90608 1957 ft 186 kts 289°
2026-04-17 20:09 52.41826 17.88516 2050 ft 197 kts 287°
2026-04-17 20:10 52.42160 17.86380 1985 ft 191 kts 286°
2026-04-17 20:10 52.42470 17.84369 1933 ft 177 kts 286°
2026-04-17 20:10 52.42472 17.82336 1829 ft 185 kts 244°
2026-04-17 20:10 52.41613 17.80955 1620 ft 175 kts 207°
2026-04-17 20:11 52.40475 17.80171 1365 ft 176 kts 194°
2026-04-17 20:11 52.39327 17.80001 1121 ft 162 kts 157°
2026-04-17 20:11 52.38653 17.81261 787 ft 147 kts 99°
2026-04-17 20:11 52.38355 17.82837 436 ft 141 kts 103°
2026-04-17 20:12 52.38085 17.84290 368 ft 136 kts 107°
2026-04-17 20:12 52.37748 17.86060 525 ft 182 kts 107°
2026-04-17 20:12 52.37345 17.88132 928 ft 199 kts 105°
2026-04-17 20:12 52.36606 17.90114 1383 ft 212 kts 135°
2026-04-17 20:13 52.35523 17.91722 1771 ft 207 kts 136°
2026-04-17 20:13 52.34420 17.93310 1916 ft 218 kts 140°
2026-04-17 20:13 52.32944 17.93803 2113 ft 226 kts 192°
2026-04-17 20:13 52.31420 17.93041 2020 ft 235 kts 199°
2026-04-17 20:14 52.30242 17.91292 2141 ft 233 kts 255°
2026-04-17 20:14 52.30389 17.88777 2107 ft 226 kts 291°
2026-04-17 20:14 52.30964 17.86260 2061 ft 246 kts 292°
2026-04-17 20:14 52.31550 17.83666 1935 ft 237 kts 292°
2026-04-17 20:15 52.32220 17.81325 2016 ft 221 kts 322°
2026-04-17 20:15 52.33582 17.81069 2073 ft 208 kts 40°
2026-04-17 20:15 52.33868 17.83181 2033 ft 213 kts 122°
2026-04-17 20:15 52.32544 17.83863 1921 ft 225 kts 211°
2026-04-17 20:16 52.31900 17.81702 1750 ft 223 kts 287°
2026-04-17 20:16 52.32400 17.79338 1772 ft 220 kts 298°
2026-04-17 20:16 52.33281 17.77366 1660 ft 218 kts 341°
2026-04-17 20:16 52.34752 17.77566 1405 ft 222 kts 21°
2026-04-17 20:17 52.36219 17.78474 1147 ft 221 kts 22°
2026-04-17 20:17 52.37458 17.79329 1064 ft 161 kts 30°
2026-04-17 20:17 52.38175 17.80402 841 ft 129 kts 53°
2026-04-17 20:17 52.38471 17.81701 618 ft 118 kts 83°
2026-04-17 20:18 52.38338 17.82952 427 ft 109 kts 104°
2026-04-17 20:18 52.38134 17.84081 370 ft 105 kts 106°
2026-04-17 20:18 52.37889 17.85341 537 ft 124 kts 105°
2026-04-17 20:18 52.37626 17.86719 804 ft 131 kts 106°
2026-04-17 20:19 52.37101 17.87976 1039 ft 152 kts 149°
2026-04-17 20:19 52.35944 17.87972 1277 ft 192 kts 194°
2026-04-17 20:19 52.34714 17.86895 1693 ft 210 kts 245°
2026-04-17 20:19 52.34788 17.84528 2122 ft 226 kts 289°
2026-04-17 20:20 52.35295 17.81926 2314 ft 245 kts 287°
2026-04-17 20:20 52.34727 17.79752 2448 ft 234 kts 191°
2026-04-17 20:20 52.33822 17.81312 2414 ft 224 kts 69°
2026-04-17 20:20 52.35119 17.82189 2440 ft 219 kts 346°
2026-04-17 20:21 52.36275 17.80644 2102 ft 218 kts 316°
2026-04-17 20:21 52.37568 17.79814 1739 ft 192 kts 18°
2026-04-17 20:21 52.38357 17.81249 1137 ft 169 kts 67°
2026-04-17 20:21 52.38324 17.83052 578 ft 157 kts 105°
2026-04-17 20:22 52.38033 17.84563 373 ft 121 kts 105°
2026-04-17 20:22 52.37856 17.85488 366 ft 53 kts 107°
2026-04-17 20:22 52.37746 17.86079 366 ft 56 kts 109°
2026-04-17 20:22 52.37665 17.86557 366 ft 18 kts 67°
2026-04-17 20:23 52.37789 17.86648 368 ft 22 kts 18°
2026-04-17 20:23 52.37920 17.86713 366 ft 16 kts 20°
2026-04-17 20:23 52.37960 17.86809 368 ft 10 kts 100°
2026-04-17 20:23 52.37962 17.86919 370 ft 8 kts 12°
2026-04-17 20:24 52.38000 17.86935 369 ft 0 kts 15°